REV6AF EGHI-EGMC

Flight info

Callsign REV6AF
Flight time 1h 47m
Altitude 7000
Route SAM DCT SAM
Aircraft F406/L-SDFGHIRWXY/LB2

Departure

Time 2026-05-04 14:11
Airport Southampton Airport (EGHI)

Arrival

Time 2026-05-04 15:59
Airport London Southend Airport (EGMC)
Time Latitude Longitude Altitude Speed Heading
2026-05-04 13:51 50.95400 -1.35822 42 ft 0 kts 289°
2026-05-04 13:52 50.95400 -1.35827 41 ft 0 kts 289°
2026-05-04 14:04 50.95400 -1.35833 39 ft 1 kts 223°
2026-05-04 14:04 50.95397 -1.35832 42 ft 0 kts 140°
2026-05-04 14:05 50.95388 -1.35737 43 ft 1 kts 42°
2026-05-04 14:05 50.95392 -1.35734 43 ft 1 kts 17°
2026-05-04 14:05 50.95396 -1.35743 43 ft 1 kts 240°
2026-05-04 14:06 50.95354 -1.35754 43 ft 13 kts 198°
2026-05-04 14:06 50.95268 -1.35802 43 ft 5 kts 198°
2026-05-04 14:06 50.95212 -1.35832 43 ft 12 kts 198°
2026-05-04 14:06 50.95126 -1.35878 43 ft 14 kts 200°
2026-05-04 14:07 50.95088 -1.35901 44 ft 2 kts 200°
2026-05-04 14:07 50.95067 -1.35905 41 ft 2 kts 146°
2026-05-04 14:07 50.95055 -1.35872 41 ft 6 kts 113°
2026-05-04 14:07 50.95048 -1.35851 41 ft 0 kts 120°
2026-05-04 14:08 50.95044 -1.35832 41 ft 5 kts 109°
2026-05-04 14:08 50.95027 -1.35757 42 ft 9 kts 108°
2026-05-04 14:08 50.95019 -1.35685 42 ft 1 kts 59°
2026-05-04 14:09 50.95071 -1.35654 42 ft 9 kts 17°
2026-05-04 14:09 50.95155 -1.35607 42 ft 16 kts 19°
2026-05-04 14:10 50.95346 -1.35519 44 ft 5 kts 20°
2026-05-04 14:10 50.95352 -1.35508 44 ft 1 kts 88°
2026-05-04 14:10 50.95346 -1.35499 44 ft 0 kts 198°
2026-05-04 14:11 50.95006 -1.35690 41 ft 92 kts 199°
2026-05-04 14:11 50.93576 -1.36529 412 ft 114 kts 205°
2026-05-04 14:11 50.92854 -1.37067 725 ft 115 kts 208°
2026-05-04 14:12 50.92126 -1.37668 989 ft 125 kts 208°
2026-05-04 14:12 50.91315 -1.38362 1287 ft 139 kts 208°
2026-05-04 14:12 50.89458 -1.38898 1845 ft 147 kts 146°
2026-05-04 14:13 50.88932 -1.37557 2133 ft 148 kts 97°
2026-05-04 14:13 50.88705 -1.35976 2411 ft 150 kts 120°
2026-05-04 14:13 50.88197 -1.34523 2689 ft 152 kts 118°
2026-05-04 14:13 50.87700 -1.33056 2962 ft 155 kts 118°
2026-05-04 14:14 50.87194 -1.31526 3242 ft 158 kts 115°
2026-05-04 14:14 50.86318 -1.28348 3520 ft 149 kts 112°
2026-05-04 14:14 50.85904 -1.26848 3510 ft 148 kts 112°
2026-05-04 14:15 50.85082 -1.23896 3501 ft 146 kts 112°
2026-05-04 14:15 50.84220 -1.20794 3505 ft 173 kts 112°
2026-05-04 14:16 50.83197 -1.17163 3505 ft 184 kts 112°
2026-05-04 14:16 50.82675 -1.15310 3501 ft 185 kts 112°
2026-05-04 14:17 50.81629 -1.11600 3493 ft 184 kts 112°
2026-05-04 14:17 50.81116 -1.09772 3493 ft 184 kts 112°
2026-05-04 14:17 50.80385 -1.05931 3498 ft 183 kts 112°
2026-05-04 14:18 50.79825 -1.04118 3504 ft 184 kts 116°
2026-05-04 14:18 50.78718 -1.00469 3499 ft 184 kts 112°
2026-05-04 14:19 50.77645 -0.96795 3501 ft 184 kts 114°
2026-05-04 14:19 50.77108 -0.94958 3496 ft 184 kts 114°
2026-05-04 14:19 50.76564 -0.93117 3486 ft 185 kts 113°
2026-05-04 14:19 50.76023 -0.91268 3471 ft 185 kts 112°
2026-05-04 14:20 50.75480 -0.89420 3467 ft 185 kts 112°
2026-05-04 14:20 50.74959 -0.87646 3465 ft 164 kts 112°
2026-05-04 14:20 50.74569 -0.86133 3454 ft 138 kts 94°
2026-05-04 14:21 50.75428 -0.83738 3465 ft 128 kts 47°
2026-05-04 14:21 50.76038 -0.82708 3465 ft 128 kts 43°
2026-05-04 14:21 50.76770 -0.81921 3464 ft 127 kts 28°
2026-05-04 14:21 50.77578 -0.81336 3466 ft 128 kts 21°
2026-05-04 14:22 50.78424 -0.80856 3466 ft 129 kts 19°
2026-05-04 14:22 50.79286 -0.80469 3469 ft 129 kts 12°
2026-05-04 14:22 50.80166 -0.80184 3467 ft 129 kts 12°
2026-05-04 14:22 50.81047 -0.79905 3463 ft 129 kts 12°
2026-05-04 14:23 50.82803 -0.79305 3467 ft 130 kts 12°
2026-05-04 14:23 50.83689 -0.79010 3463 ft 130 kts 12°
2026-05-04 14:23 50.84570 -0.78717 3463 ft 129 kts 13°
2026-05-04 14:24 50.85442 -0.78422 3464 ft 128 kts 13°
2026-05-04 14:24 50.86315 -0.78126 3464 ft 128 kts 12°
2026-05-04 14:24 50.87192 -0.77834 3465 ft 129 kts 13°
2026-05-04 14:24 50.88075 -0.77536 3460 ft 131 kts 12°
2026-05-04 14:25 50.88971 -0.77234 3460 ft 132 kts 12°
2026-05-04 14:25 50.90773 -0.76628 3461 ft 132 kts 13°
2026-05-04 14:25 50.91646 -0.76333 3458 ft 125 kts 13°
2026-05-04 14:26 50.92487 -0.76051 3464 ft 122 kts 12°
2026-05-04 14:26 50.93312 -0.75775 3463 ft 121 kts 12°
2026-05-04 14:26 50.94123 -0.75503 3464 ft 120 kts 12°
2026-05-04 14:26 50.94944 -0.75225 3467 ft 120 kts 12°
2026-05-04 14:27 50.95763 -0.74948 3469 ft 121 kts 12°
2026-05-04 14:27 50.96587 -0.74669 3466 ft 121 kts 12°
2026-05-04 14:27 50.97413 -0.74390 3459 ft 121 kts 14°
2026-05-04 14:27 50.98014 -0.73572 3461 ft 120 kts 73°
2026-05-04 14:28 50.97832 -0.72332 3469 ft 121 kts 126°
2026-05-04 14:28 50.97103 -0.71754 3464 ft 123 kts 184°
2026-05-04 14:28 50.96260 -0.72011 3467 ft 124 kts 193°
2026-05-04 14:28 50.95422 -0.72356 3465 ft 123 kts 194°
2026-05-04 14:29 50.93735 -0.72946 3465 ft 127 kts 191°
2026-05-04 14:29 50.91992 -0.73529 3462 ft 128 kts 192°
2026-05-04 14:30 50.91134 -0.73821 3459 ft 128 kts 192°
2026-05-04 14:30 50.90264 -0.74116 3462 ft 128 kts 191°
2026-05-04 14:30 50.88519 -0.74701 3463 ft 128 kts 192°
2026-05-04 14:31 50.87645 -0.74995 3461 ft 128 kts 192°
2026-05-04 14:31 50.85842 -0.75604 3470 ft 136 kts 191°
2026-05-04 14:32 50.84004 -0.76224 3464 ft 136 kts 192°
2026-05-04 14:32 50.83083 -0.76534 3465 ft 135 kts 191°
2026-05-04 14:32 50.82166 -0.76847 3460 ft 135 kts 191°
2026-05-04 14:32 50.81246 -0.77154 3463 ft 135 kts 191°
2026-05-04 14:33 50.80323 -0.77466 3469 ft 136 kts 191°
2026-05-04 14:33 50.79392 -0.77777 3469 ft 136 kts 191°
2026-05-04 14:33 50.78466 -0.78087 3464 ft 136 kts 191°
2026-05-04 14:33 50.77538 -0.78401 3465 ft 136 kts 191°
2026-05-04 14:34 50.76617 -0.78711 3465 ft 135 kts 192°
2026-05-04 14:34 50.75700 -0.79020 3459 ft 134 kts 191°
2026-05-04 14:34 50.74791 -0.79326 3459 ft 133 kts 191°
2026-05-04 14:34 50.73899 -0.79625 3456 ft 133 kts 191°
2026-05-04 14:35 50.72994 -0.79562 3459 ft 130 kts 147°
2026-05-04 14:35 50.72544 -0.78426 3468 ft 125 kts 89°
2026-05-04 14:35 50.72917 -0.77280 3467 ft 121 kts 30°
2026-05-04 14:35 50.73723 -0.76947 3463 ft 122 kts 12°
2026-05-04 14:36 50.74559 -0.76721 3458 ft 122 kts 11°
2026-05-04 14:36 50.75396 -0.76456 3457 ft 122 kts 13°
2026-05-04 14:36 50.76231 -0.76165 3466 ft 123 kts 13°
2026-05-04 14:36 50.77071 -0.75875 3461 ft 124 kts 12°
2026-05-04 14:37 50.77910 -0.75597 3461 ft 123 kts 12°
2026-05-04 14:37 50.78745 -0.75322 3466 ft 122 kts 13°
2026-05-04 14:37 50.79580 -0.75035 3464 ft 123 kts 13°
2026-05-04 14:37 50.80423 -0.74750 3468 ft 124 kts 12°
2026-05-04 14:38 50.81267 -0.74469 3457 ft 124 kts 12°
2026-05-04 14:38 50.82109 -0.74190 3461 ft 123 kts 13°
2026-05-04 14:38 50.82946 -0.73905 3463 ft 123 kts 13°
2026-05-04 14:38 50.83777 -0.73627 3459 ft 122 kts 13°
2026-05-04 14:39 50.84611 -0.73348 3460 ft 122 kts 13°
2026-05-04 14:39 50.85450 -0.73065 3460 ft 123 kts 12°
2026-05-04 14:39 50.86284 -0.72788 3464 ft 124 kts 13°
2026-05-04 14:40 50.87965 -0.72218 3459 ft 124 kts 13°
2026-05-04 14:40 50.88814 -0.71931 3461 ft 125 kts 12°
2026-05-04 14:40 50.89671 -0.71645 3461 ft 126 kts 12°
2026-05-04 14:40 50.90533 -0.71356 3462 ft 127 kts 12°
2026-05-04 14:41 50.91395 -0.71066 3464 ft 127 kts 13°
2026-05-04 14:41 50.92255 -0.70777 3464 ft 126 kts 13°
2026-05-04 14:41 50.93980 -0.70195 3462 ft 127 kts 12°
2026-05-04 14:42 50.95709 -0.69613 3462 ft 127 kts 13°
2026-05-04 14:42 50.96573 -0.69320 3460 ft 127 kts 13°
2026-05-04 14:42 50.97255 -0.68574 3458 ft 125 kts 66°
2026-05-04 14:43 50.97189 -0.67246 3465 ft 128 kts 124°
2026-05-04 14:43 50.96426 -0.66618 3470 ft 130 kts 182°
2026-05-04 14:43 50.95541 -0.66895 3465 ft 131 kts 193°
2026-05-04 14:43 50.94661 -0.67263 3460 ft 131 kts 195°
2026-05-04 14:44 50.93773 -0.67597 3463 ft 132 kts 192°
2026-05-04 14:44 50.92872 -0.67886 3465 ft 132 kts 191°
2026-05-04 14:44 50.91971 -0.68180 3463 ft 132 kts 192°
2026-05-04 14:44 50.91069 -0.68488 3462 ft 133 kts 192°
2026-05-04 14:45 50.90168 -0.68793 3465 ft 132 kts 192°
2026-05-04 14:45 50.89266 -0.69098 3464 ft 133 kts 192°
2026-05-04 14:45 50.88365 -0.69398 3461 ft 131 kts 192°
2026-05-04 14:45 50.87471 -0.69701 3462 ft 131 kts 192°
2026-05-04 14:46 50.86585 -0.70003 3457 ft 132 kts 192°
2026-05-04 14:46 50.85681 -0.70307 3460 ft 133 kts 191°
2026-05-04 14:46 50.84771 -0.70609 3464 ft 135 kts 191°
2026-05-04 14:46 50.83840 -0.70922 3468 ft 136 kts 191°
2026-05-04 14:47 50.82908 -0.71237 3467 ft 138 kts 191°
2026-05-04 14:47 50.81968 -0.71553 3466 ft 138 kts 191°
2026-05-04 14:47 50.81032 -0.71869 3463 ft 137 kts 192°
2026-05-04 14:47 50.80102 -0.72183 3462 ft 136 kts 192°
2026-05-04 14:48 50.79187 -0.72495 3457 ft 136 kts 191°
2026-05-04 14:48 50.78263 -0.72802 3462 ft 136 kts 191°
2026-05-04 14:48 50.77333 -0.73112 3467 ft 137 kts 191°
2026-05-04 14:48 50.76407 -0.73423 3465 ft 135 kts 192°
2026-05-04 14:49 50.75488 -0.73737 3460 ft 135 kts 192°
2026-05-04 14:49 50.74573 -0.74043 3458 ft 134 kts 192°
2026-05-04 14:49 50.73653 -0.74356 3464 ft 136 kts 191°
2026-05-04 14:49 50.72719 -0.74604 3452 ft 136 kts 175°
2026-05-04 14:50 50.71961 -0.73895 3453 ft 128 kts 116°
2026-05-04 14:50 50.71942 -0.72594 3461 ft 122 kts 57°
2026-05-04 14:50 50.72357 -0.72047 3467 ft 120 kts 18°
2026-05-04 14:50 50.73181 -0.71789 3471 ft 122 kts 11°
2026-05-04 14:51 50.74024 -0.71558 3467 ft 123 kts 12°
2026-05-04 14:51 50.74867 -0.71276 3466 ft 124 kts 12°
2026-05-04 14:51 50.75710 -0.70988 3467 ft 123 kts 13°
2026-05-04 14:51 50.76550 -0.70698 3465 ft 123 kts 13°
2026-05-04 14:52 50.77387 -0.70417 3466 ft 123 kts 13°
2026-05-04 14:52 50.78223 -0.70135 3461 ft 123 kts 12°
2026-05-04 14:52 50.79059 -0.69856 3464 ft 123 kts 13°
2026-05-04 14:52 50.79890 -0.69575 3467 ft 123 kts 12°
2026-05-04 14:53 50.80727 -0.69296 3462 ft 123 kts 12°
2026-05-04 14:53 50.81559 -0.69020 3462 ft 122 kts 13°
2026-05-04 14:53 50.82389 -0.68737 3464 ft 123 kts 13°
2026-05-04 14:53 50.83226 -0.68458 3462 ft 123 kts 13°
2026-05-04 14:54 50.84081 -0.68172 3463 ft 130 kts 12°
2026-05-04 14:54 50.84981 -0.67874 3460 ft 134 kts 13°
2026-05-04 14:54 50.85894 -0.67563 3458 ft 134 kts 13°
2026-05-04 14:54 50.86803 -0.67252 3455 ft 134 kts 13°
2026-05-04 14:55 50.87716 -0.66948 3456 ft 134 kts 12°
2026-05-04 14:55 50.88627 -0.66640 3463 ft 137 kts 12°
2026-05-04 14:55 50.89560 -0.66330 3465 ft 137 kts 12°
2026-05-04 14:55 50.90495 -0.66014 3464 ft 137 kts 12°
2026-05-04 14:56 50.91432 -0.65698 3469 ft 138 kts 12°
2026-05-04 14:56 50.92372 -0.65383 3467 ft 138 kts 12°
2026-05-04 14:56 50.93315 -0.65063 3462 ft 139 kts 12°
2026-05-04 14:56 50.94256 -0.64748 3462 ft 138 kts 12°
2026-05-04 14:57 50.95205 -0.64429 3400 ft 141 kts 12°
2026-05-04 14:57 50.96171 -0.64101 3265 ft 143 kts 13°
2026-05-04 14:57 50.97180 -0.63833 2964 ft 151 kts
2026-05-04 14:57 50.98235 -0.63644 2633 ft 154 kts
2026-05-04 14:58 50.99291 -0.63394 2300 ft 154 kts 20°
2026-05-04 14:58 51.00214 -0.62567 1965 ft 153 kts 20°
2026-05-04 14:58 51.01254 -0.62703 1640 ft 154 kts 338°
2026-05-04 14:58 51.02183 -0.63557 1313 ft 154 kts 327°
2026-05-04 14:59 51.03008 -0.64477 1385 ft 139 kts 324°
2026-05-04 14:59 51.03777 -0.65381 1428 ft 137 kts 323°
2026-05-04 14:59 51.05375 -0.66957 1451 ft 136 kts
2026-05-04 15:00 51.06211 -0.66377 1462 ft 134 kts 41°
2026-05-04 15:00 51.06920 -0.65409 1461 ft 135 kts 43°
2026-05-04 15:00 51.07612 -0.64402 1462 ft 135 kts 44°
2026-05-04 15:01 51.08888 -0.62217 1460 ft 135 kts 39°
2026-05-04 15:01 51.09699 -0.61500 1461 ft 136 kts 24°
2026-05-04 15:01 51.10305 -0.60443 1460 ft 133 kts 77°
2026-05-04 15:01 51.10404 -0.59030 1457 ft 124 kts 87°
2026-05-04 15:02 51.10438 -0.57684 1457 ft 120 kts 89°
2026-05-04 15:02 51.10453 -0.56359 1460 ft 119 kts 90°
2026-05-04 15:02 51.10496 -0.55040 1458 ft 119 kts 86°
2026-05-04 15:02 51.10579 -0.53733 1461 ft 121 kts 85°
2026-05-04 15:03 51.10664 -0.52381 1467 ft 124 kts 85°
2026-05-04 15:03 51.10736 -0.51003 1465 ft 126 kts 86°
2026-05-04 15:03 51.10811 -0.49615 1463 ft 125 kts 85°
2026-05-04 15:03 51.10887 -0.48255 1464 ft 125 kts 85°
2026-05-04 15:04 51.10964 -0.46890 1465 ft 125 kts 85°
2026-05-04 15:04 51.11040 -0.45508 1461 ft 125 kts 86°
2026-05-04 15:04 51.11116 -0.44133 1458 ft 125 kts 86°
2026-05-04 15:04 51.11192 -0.42755 1459 ft 125 kts 85°
2026-05-04 15:05 51.11268 -0.41380 1459 ft 125 kts 85°
2026-05-04 15:05 51.11344 -0.40007 1462 ft 124 kts 85°
2026-05-04 15:05 51.11418 -0.38635 1461 ft 124 kts 85°
2026-05-04 15:05 51.11492 -0.37260 1461 ft 125 kts 85°
2026-05-04 15:06 51.11568 -0.35880 1462 ft 125 kts 85°
2026-05-04 15:06 51.11643 -0.34512 1463 ft 126 kts 85°
2026-05-04 15:06 51.11720 -0.33108 1460 ft 126 kts 86°
2026-05-04 15:07 51.11867 -0.30367 1459 ft 125 kts 86°
2026-05-04 15:07 51.11942 -0.28989 1458 ft 125 kts 85°
2026-05-04 15:07 51.12006 -0.27805 1458 ft 125 kts 85°
2026-05-04 15:07 51.12074 -0.26545 1461 ft 125 kts 85°
2026-05-04 15:08 51.12147 -0.25162 1463 ft 125 kts 85°
2026-05-04 15:08 51.12220 -0.23785 1464 ft 125 kts 85°
2026-05-04 15:08 51.12291 -0.22421 1462 ft 121 kts 88°
2026-05-04 15:08 51.11961 -0.21289 1466 ft 118 kts 148°
2026-05-04 15:09 51.11158 -0.21140 1466 ft 119 kts 183°
2026-05-04 15:09 51.10431 -0.21238 1462 ft 123 kts 186°
2026-05-04 15:09 51.09686 -0.21912 1466 ft 125 kts 242°
2026-05-04 15:10 51.09504 -0.24627 1455 ft 125 kts 269°
2026-05-04 15:10 51.09497 -0.26038 1453 ft 129 kts 270°
2026-05-04 15:10 51.09451 -0.28920 1456 ft 131 kts 265°
2026-05-04 15:11 51.09364 -0.30367 1459 ft 133 kts 264°
2026-05-04 15:11 51.09275 -0.31849 1461 ft 136 kts 265°
2026-05-04 15:11 51.09196 -0.33354 1461 ft 137 kts 266°
2026-05-04 15:11 51.09117 -0.34863 1460 ft 137 kts 265°
2026-05-04 15:12 51.09034 -0.36365 1458 ft 136 kts 265°
2026-05-04 15:12 51.08952 -0.37860 1459 ft 136 kts 265°
2026-05-04 15:12 51.08869 -0.39355 1460 ft 136 kts 265°
2026-05-04 15:12 51.08787 -0.40851 1461 ft 135 kts 265°
2026-05-04 15:13 51.08706 -0.42346 1461 ft 136 kts 265°
2026-05-04 15:13 51.08622 -0.43845 1464 ft 137 kts 265°
2026-05-04 15:13 51.08537 -0.45355 1463 ft 137 kts 265°
2026-05-04 15:13 51.08454 -0.46865 1464 ft 137 kts 265°
2026-05-04 15:14 51.08372 -0.48374 1463 ft 137 kts 265°
2026-05-04 15:14 51.08287 -0.49881 1463 ft 137 kts 265°
2026-05-04 15:14 51.08204 -0.51387 1462 ft 137 kts 265°
2026-05-04 15:14 51.08121 -0.52869 1460 ft 136 kts 265°
2026-05-04 15:15 51.08038 -0.54364 1461 ft 136 kts 265°
2026-05-04 15:15 51.07953 -0.55877 1461 ft 136 kts 264°
2026-05-04 15:15 51.07868 -0.57374 1459 ft 136 kts 264°
2026-05-04 15:16 51.07665 -0.60347 1460 ft 136 kts 250°
2026-05-04 15:16 51.07001 -0.61321 1465 ft 134 kts 193°
2026-05-04 15:16 51.05398 -0.60527 1459 ft 132 kts 132°
2026-05-04 15:17 51.05161 -0.59186 1465 ft 131 kts 83°
2026-05-04 15:17 51.05407 -0.56311 1465 ft 132 kts 81°
2026-05-04 15:17 51.05515 -0.54863 1466 ft 132 kts 85°
2026-05-04 15:18 51.05599 -0.53309 1463 ft 148 kts 85°
2026-05-04 15:18 51.05682 -0.51644 1460 ft 153 kts 85°
2026-05-04 15:18 51.05775 -0.49943 1461 ft 156 kts 85°
2026-05-04 15:19 51.05972 -0.46399 1462 ft 163 kts 85°
2026-05-04 15:19 51.06070 -0.44620 1462 ft 164 kts 85°
2026-05-04 15:19 51.06269 -0.41014 1467 ft 164 kts 85°
2026-05-04 15:20 51.06369 -0.39205 1465 ft 164 kts 85°
2026-05-04 15:20 51.06468 -0.37398 1457 ft 164 kts 85°
2026-05-04 15:20 51.06566 -0.35593 1458 ft 164 kts 85°
2026-05-04 15:20 51.06665 -0.33789 1457 ft 164 kts 85°
2026-05-04 15:21 51.06763 -0.31989 1462 ft 164 kts 85°
2026-05-04 15:21 51.06860 -0.30201 1463 ft 164 kts 85°
2026-05-04 15:21 51.07050 -0.26698 1462 ft 164 kts 85°
2026-05-04 15:22 51.07147 -0.24890 1467 ft 164 kts 85°
2026-05-04 15:22 51.07241 -0.23101 1470 ft 165 kts 85°
2026-05-04 15:22 51.06230 -0.20218 1468 ft 165 kts 164°
2026-05-04 15:23 51.05139 -0.20395 1460 ft 159 kts 208°
2026-05-04 15:23 51.04567 -0.21612 1454 ft 129 kts 262°
2026-05-04 15:23 51.04510 -0.23009 1459 ft 130 kts 268°
2026-05-04 15:23 51.04490 -0.24521 1460 ft 144 kts 269°
2026-05-04 15:24 51.04485 -0.27838 1459 ft 152 kts 269°
2026-05-04 15:24 51.04297 -0.31201 1460 ft 153 kts 265°
2026-05-04 15:25 51.04204 -0.32891 1459 ft 153 kts 265°
2026-05-04 15:25 51.04113 -0.34582 1460 ft 153 kts 265°
2026-05-04 15:25 51.04022 -0.36265 1461 ft 153 kts 265°
2026-05-04 15:26 51.03836 -0.39632 1466 ft 154 kts 265°
2026-05-04 15:26 51.03743 -0.41326 1465 ft 154 kts 265°
2026-05-04 15:26 51.03556 -0.44713 1463 ft 154 kts 265°
2026-05-04 15:27 51.03462 -0.46409 1458 ft 154 kts 265°
2026-05-04 15:27 51.03274 -0.49779 1461 ft 154 kts 264°
2026-05-04 15:28 51.03084 -0.53171 1459 ft 153 kts 265°
2026-05-04 15:28 51.03005 -0.54863 1463 ft 154 kts 270°
2026-05-04 15:28 51.03315 -0.55308 79 ft 1 kts 233°
2026-05-04 15:29 51.03320 -0.55314 79 ft 0 kts 233°
2026-05-04 15:30 51.04026 -0.56052 912 ft 114 kts 117°
2026-05-04 15:30 51.01869 -0.52880 703 ft 149 kts 142°
2026-05-04 15:31 51.00616 -0.50036 692 ft 165 kts 118°
2026-05-04 15:31 51.00067 -0.48443 681 ft 164 kts 117°
2026-05-04 15:32 50.98559 -0.43643 667 ft 162 kts 115°
2026-05-04 15:32 50.97576 -0.40414 655 ft 162 kts 115°
2026-05-04 15:33 50.96602 -0.37206 667 ft 162 kts 116°
2026-05-04 15:34 50.95115 -0.32191 667 ft 172 kts 115°
2026-05-04 15:34 50.94605 -0.30489 660 ft 172 kts 116°
2026-05-04 15:34 50.93540 -0.26948 679 ft 183 kts 116°
2026-05-04 15:35 50.92964 -0.23021 691 ft 185 kts 94°
2026-05-04 15:35 50.92916 -0.21038 978 ft 173 kts 92°
2026-05-04 15:35 50.92887 -0.19176 1266 ft 166 kts 92°
2026-05-04 15:36 50.92762 -0.15530 1829 ft 165 kts 97°
2026-05-04 15:36 50.92619 -0.13738 2108 ft 166 kts 98°
2026-05-04 15:36 50.92446 -0.11920 2389 ft 167 kts 98°
2026-05-04 15:37 50.92323 -0.10717 2566 ft 167 kts 99°
2026-05-04 15:37 50.92129 -0.08891 2851 ft 169 kts 99°
2026-05-04 15:37 50.91924 -0.06999 3001 ft 178 kts 99°
2026-05-04 15:37 50.91700 -0.05028 2981 ft 183 kts 99°
2026-05-04 15:38 50.91393 -0.02386 2975 ft 184 kts 99°
2026-05-04 15:38 50.91237 -0.01035 2970 ft 184 kts 99°
2026-05-04 15:38 50.91004 0.00959 2958 ft 184 kts 99°
2026-05-04 15:38 50.90771 0.02949 2961 ft 183 kts 99°
2026-05-04 15:39 50.90534 0.04936 2968 ft 183 kts 99°
2026-05-04 15:39 50.90298 0.06895 2968 ft 183 kts 99°
2026-05-04 15:39 50.89815 0.10856 2962 ft 183 kts 99°
2026-05-04 15:40 50.89576 0.12839 2959 ft 183 kts 99°
2026-05-04 15:40 50.89492 0.14827 2955 ft 181 kts 75°
2026-05-04 15:40 50.90175 0.16419 2959 ft 179 kts 34°
2026-05-04 15:40 50.91361 0.16932 2962 ft 181 kts
2026-05-04 15:41 50.92615 0.17060 2957 ft 181 kts
2026-05-04 15:41 50.93854 0.17403 2960 ft 180 kts 13°
2026-05-04 15:41 50.95066 0.17920 2967 ft 181 kts 18°
2026-05-04 15:41 50.96252 0.18569 2966 ft 180 kts 21°
2026-05-04 15:42 50.97423 0.19286 2961 ft 180 kts 22°
2026-05-04 15:42 50.98591 0.20031 2960 ft 181 kts 22°
2026-05-04 15:42 50.99727 0.20885 2964 ft 180 kts 29°
2026-05-04 15:42 51.00829 0.21829 2954 ft 180 kts 28°
2026-05-04 15:43 51.01921 0.22748 2954 ft 180 kts 28°
2026-05-04 15:43 51.03029 0.23671 2955 ft 180 kts 28°
2026-05-04 15:43 51.04135 0.24599 2961 ft 180 kts 28°
2026-05-04 15:43 51.05241 0.25527 2962 ft 180 kts 28°
2026-05-04 15:44 51.06348 0.26454 2962 ft 181 kts 28°
2026-05-04 15:44 51.07459 0.27387 2956 ft 180 kts 28°
2026-05-04 15:44 51.08569 0.28320 2957 ft 180 kts 28°
2026-05-04 15:44 51.09673 0.29249 2962 ft 180 kts 28°
2026-05-04 15:45 51.10782 0.30180 2964 ft 180 kts 28°
2026-05-04 15:45 51.11896 0.31105 2961 ft 181 kts 29°
2026-05-04 15:45 51.13002 0.32054 2958 ft 180 kts 28°
2026-05-04 15:45 51.14109 0.32985 2954 ft 180 kts 28°
2026-05-04 15:46 51.15219 0.33915 2956 ft 180 kts 28°
2026-05-04 15:46 51.16325 0.34850 2961 ft 180 kts 28°
2026-05-04 15:46 51.17434 0.35789 2964 ft 180 kts 28°
2026-05-04 15:46 51.18542 0.36720 2961 ft 180 kts 28°
2026-05-04 15:47 51.19649 0.37655 2958 ft 181 kts 28°
2026-05-04 15:47 51.20759 0.38592 2954 ft 180 kts 28°
2026-05-04 15:47 51.21866 0.39528 2955 ft 180 kts 28°
2026-05-04 15:47 51.22970 0.40463 2954 ft 180 kts 28°
2026-05-04 15:48 51.24061 0.41388 2958 ft 180 kts 28°
2026-05-04 15:48 51.25146 0.42304 2956 ft 180 kts 28°
2026-05-04 15:48 51.27357 0.44177 2955 ft 180 kts 28°
2026-05-04 15:49 51.28463 0.45116 2959 ft 180 kts 28°
2026-05-04 15:49 51.29572 0.46056 2960 ft 180 kts 28°
2026-05-04 15:49 51.30678 0.46995 2964 ft 179 kts 28°
2026-05-04 15:49 51.31784 0.47937 2965 ft 180 kts 28°
2026-05-04 15:50 51.32889 0.48878 2962 ft 180 kts 28°
2026-05-04 15:50 51.33801 0.50267 2690 ft 189 kts 62°
2026-05-04 15:50 51.34239 0.52259 2333 ft 190 kts 72°
2026-05-04 15:50 51.34569 0.54306 1973 ft 190 kts 75°
2026-05-04 15:51 51.34868 0.56357 1627 ft 189 kts 76°
2026-05-04 15:51 51.35146 0.58369 1423 ft 182 kts 77°
2026-05-04 15:51 51.35408 0.60300 1450 ft 175 kts 77°
2026-05-04 15:51 51.35660 0.62195 1452 ft 174 kts 77°
2026-05-04 15:52 51.35915 0.64085 1459 ft 174 kts 77°
2026-05-04 15:52 51.36172 0.65980 1463 ft 174 kts 77°
2026-05-04 15:52 51.36426 0.67870 1459 ft 173 kts 77°
2026-05-04 15:52 51.36676 0.69736 1460 ft 172 kts 77°
2026-05-04 15:53 51.36929 0.71615 1466 ft 174 kts 77°
2026-05-04 15:53 51.37185 0.73516 1460 ft 175 kts 77°
2026-05-04 15:53 51.37445 0.75412 1459 ft 174 kts 77°
2026-05-04 15:53 51.37705 0.77299 1453 ft 173 kts 76°
2026-05-04 15:54 51.38124 0.79077 1443 ft 172 kts 50°
2026-05-04 15:54 51.39158 0.79978 1459 ft 175 kts
2026-05-04 15:54 51.40373 0.79778 1462 ft 178 kts 343°
2026-05-04 15:54 51.41499 0.78933 1461 ft 179 kts 336°
2026-05-04 15:55 51.42594 0.78014 1462 ft 180 kts 335°
2026-05-04 15:55 51.43687 0.77046 1453 ft 179 kts 334°
2026-05-04 15:55 51.44778 0.76081 1469 ft 180 kts 334°
2026-05-04 15:55 51.45883 0.75108 1498 ft 182 kts 333°
2026-05-04 15:56 51.47006 0.74135 1527 ft 185 kts 333°
2026-05-04 15:56 51.48150 0.73143 1507 ft 187 kts 333°
2026-05-04 15:56 51.49295 0.72151 1453 ft 185 kts 333°
2026-05-04 15:56 51.50410 0.71165 1440 ft 181 kts 334°
2026-05-04 15:57 51.51442 0.70291 1308 ft 140 kts 337°
2026-05-04 15:57 51.52224 0.69716 1087 ft 114 kts 342°
2026-05-04 15:57 51.52993 0.69219 899 ft 122 kts 342°
2026-05-04 15:57 51.53796 0.68699 819 ft 134 kts 339°
2026-05-04 15:58 51.54706 0.68024 861 ft 152 kts 337°
2026-05-04 15:58 51.55580 0.67339 600 ft 120 kts 346°
2026-05-04 15:58 51.56305 0.67654 286 ft 106 kts 51°
2026-05-04 15:58 51.56676 0.68533 97 ft 88 kts 52°
2026-05-04 15:59 51.56971 0.69191 53 ft 63 kts 52°
2026-05-04 15:59 51.57185 0.69643 51 ft 37 kts 56°
2026-05-04 15:59 51.57256 0.69814 52 ft 3 kts 85°
2026-05-04 15:59 51.57230 0.69859 49 ft 12 kts 143°
2026-05-04 16:00 51.57135 0.69965 49 ft 19 kts 141°
2026-05-04 16:00 51.57020 0.70100 49 ft 21 kts 144°
2026-05-04 16:00 51.56945 0.70181 49 ft 12 kts 147°
2026-05-04 16:00 51.56921 0.70190 49 ft 4 kts 210°
2026-05-04 16:01 51.56877 0.70072 49 ft 11 kts 253°
2026-05-04 16:01 51.56885 0.69909 49 ft 18 kts 274°
2026-05-04 16:01 51.56903 0.69740 49 ft 5 kts 254°
2026-05-04 16:01 51.56882 0.69723 49 ft 12 kts 187°
2026-05-04 16:02 51.56845 0.69724 49 ft 3 kts 83°
2026-05-04 16:02 51.56848 0.69729 49 ft 0 kts 22°